Grass Valley, CA

1:35 PM PDT on May 29, 2017 (GMT -0700)
Grass Valley

Weather History for KGOO - April, 2014

Change the Weather History Date:

Sunday, April 6, 2014

  Actual Average (KAUN) Record (KAUN)
Temperature  
Mean Temperature 58 °F -  
Max Temperature 69 °F 66 °F 84 °F (1952)
Min Temperature 46 °F 45 °F 34 °F (1975)
Degree Days  
Heating Degree Days 8    
Growing Degree Days 8 (Base 50)    
Moisture  
Dew Point 37 °F    
Average Humidity 48    
Maximum Humidity 71    
Minimum Humidity 22    
Precipitation  
Precipitation 0.00 in - - ()
Sea Level Pressure  
Sea Level Pressure 30.20 in    
Wind  
Wind Speed 3 mph (North)    
Max Wind Speed 12 mph    
Max Gust Speed 16 mph    
Visibility 10 miles    
Events      
Averages and records for this station are not official NWS values.
T = Trace of Precipitation, MM = Missing Value Source: NWS Daily Summary

Daily Weather History Graph

Daily Weather History Graph

Search for Another Location

Airport or City:

Trip Planner

Search our weather history database for the weather conditions in past years. The results will help you decide how hot, cold, wet, or windy it might be!

Date:

Astronomy

Apr. 06, 2014 Rise Set
Actual Time 6:40 AM PDT 7:32 PM PDT
Civil Twilight 6:13 AM PDT 8:00 PM PDT
Nautical Twilight 5:41 AM PDT 8:32 PM PDT
Astronomical Twilight 5:07 AM PDT 9:05 PM PDT
Moon 11:47 AM PDT (4/6) 1:31 AM PDT (4/6)
Length of Visible Light 13h 46m
Length of Day
12h 52m
Waxing Crescent, 45% of the Moon is Illuminated
Apr 6
Waxing Crescent
Apr 7
First Quarter
Apr 15
Full
Apr 22
Last Quarter
Apr 28
New

Hourly Weather History & Observations

Time (PDT) Temp. Windchill Dew Point Humidity Pressure Visibility Wind Dir Wind Speed Gust Speed Precip Events Conditions
12:00 AM 48.2 °F - 37.4 °F 66% 30.20 in 10.0 mi Calm Calm - N/A   Clear
12:20 AM 48.2 °F - 37.4 °F 66% 30.21 in 10.0 mi Calm Calm - N/A   Clear
12:40 AM 48.2 °F - 37.4 °F 66% 30.21 in 10.0 mi Calm Calm - N/A   Clear
1:00 AM 48.2 °F - 37.4 °F 66% 30.21 in 10.0 mi Calm Calm - N/A   Clear
1:20 AM 48.2 °F - 37.4 °F 66% 30.21 in 10.0 mi Calm Calm - N/A   Clear
1:40 AM 48.2 °F - 37.4 °F 66% 30.21 in 10.0 mi Calm Calm - N/A   Clear
2:00 AM 48.2 °F - 37.4 °F 66% 30.20 in 10.0 mi Calm Calm - N/A   Clear
2:20 AM 46.4 °F - 37.4 °F 71% 30.20 in 10.0 mi Calm Calm - N/A   Clear
2:40 AM 48.2 °F - 37.4 °F 66% 30.20 in 10.0 mi Calm Calm - N/A   Clear
3:00 AM 48.2 °F - 37.4 °F 66% 30.20 in 10.0 mi Calm Calm - N/A   Clear
3:20 AM 46.4 °F - 37.4 °F 71% 30.20 in 10.0 mi Calm Calm - N/A   Clear
3:40 AM 46.4 °F - 37.4 °F 71% 30.20 in 10.0 mi Calm Calm - N/A   Clear
4:00 AM 46.4 °F 44.3 °F 37.4 °F 71% 30.19 in 10.0 mi NE 4.6 mph - N/A   Clear
4:20 AM 48.2 °F - 37.4 °F 66% 30.19 in 10.0 mi NE 4.6 mph - N/A   Clear
4:35 AM 48.2 °F - 35.6 °F 62% 30.19 in 10.0 mi NE 3.5 mph - N/A   Clear
5:00 AM 48.2 °F - 35.6 °F 62% 30.19 in 10.0 mi NNE 3.5 mph - N/A   Clear
5:20 AM 48.2 °F - 33.8 °F 58% 30.19 in 10.0 mi NNE 4.6 mph - N/A   Clear
5:40 AM 46.4 °F 45.2 °F 33.8 °F 62% 30.20 in 10.0 mi NNE 3.5 mph - N/A   Clear
6:00 AM 46.4 °F 45.2 °F 33.8 °F 62% 30.20 in 10.0 mi North 3.5 mph - N/A   Clear
6:20 AM 48.2 °F - 32.0 °F 54% 30.20 in 10.0 mi North 3.5 mph - N/A   Clear
6:40 AM 48.2 °F - 32.0 °F 54% 30.20 in 10.0 mi North 3.5 mph - N/A   Clear
7:00 AM 51.8 °F - 32.0 °F 47% 30.21 in 10.0 mi Calm Calm - N/A   Clear
7:20 AM 51.8 °F - 32.0 °F 47% 30.22 in 10.0 mi NNW 5.8 mph - N/A   Clear
7:40 AM 50.0 °F - 35.6 °F 58% 30.22 in 10.0 mi North 4.6 mph - N/A   Clear
8:00 AM 50.0 °F - 35.6 °F 58% 30.23 in 10.0 mi Calm Calm - N/A   Clear
8:20 AM 53.6 °F - 35.6 °F 51% 30.23 in 10.0 mi North 4.6 mph - N/A   Clear
8:40 AM 55.4 °F - 35.6 °F 47% 30.24 in 10.0 mi Calm Calm - N/A   Clear
9:00 AM 57.2 °F - 35.6 °F 44% 30.24 in 10.0 mi North 3.5 mph - N/A   Clear
9:20 AM 57.2 °F - 35.6 °F 44% 30.24 in 10.0 mi North 3.5 mph - N/A   Clear
9:40 AM 59.0 °F - 37.4 °F 45% 30.24 in 10.0 mi NNW 4.6 mph - N/A   Clear
10:00 AM 59.0 °F - 35.6 °F 42% 30.24 in 10.0 mi NW 5.8 mph - N/A   Clear
10:20 AM 59.0 °F - 37.4 °F 45% 30.24 in 10.0 mi NNW 5.8 mph - N/A   Clear
10:40 AM 60.8 °F - 37.4 °F 42% 30.24 in 10.0 mi NNW 6.9 mph - N/A   Clear
11:00 AM 62.6 °F - 37.4 °F 39% 30.24 in 10.0 mi NW 8.1 mph - N/A   Clear
11:15 AM 62.6 °F - 35.6 °F 37% 30.24 in 10.0 mi North 4.6 mph - N/A   Clear
11:35 AM 64.4 °F - 37.4 °F 37% 30.23 in 9.0 mi NNW 6.9 mph - N/A   Clear
12:00 PM 64.4 °F - 35.6 °F 34% 30.23 in 10.0 mi NNW 6.9 mph - N/A   Clear
12:20 PM 66.2 °F - 35.6 °F 32% 30.23 in 10.0 mi NNW 8.1 mph 16.1 mph N/A   Clear
12:40 PM 66.2 °F - 33.8 °F 30% 30.23 in 10.0 mi NNE 8.1 mph - N/A   Clear
1:00 PM 66.2 °F - 32.0 °F 28% 30.22 in 10.0 mi NE 9.2 mph 16.1 mph N/A   Clear
1:20 PM 68.0 °F - 32.0 °F 26% 30.22 in 10.0 mi NNE 9.2 mph - N/A   Clear
1:40 PM 68.0 °F - 32.0 °F 26% 30.22 in 10.0 mi NNE 4.6 mph - N/A   Clear
2:00 PM 69.8 °F - 32.0 °F 25% 30.21 in 10.0 mi ENE 8.1 mph - N/A   Clear
2:20 PM 69.8 °F - 32.0 °F 25% 30.21 in 10.0 mi SE 8.1 mph - N/A   Clear
2:40 PM 69.8 °F - 32.0 °F 25% 30.20 in 10.0 mi ENE 5.8 mph - N/A   Clear
3:00 PM 69.8 °F - 32.0 °F 25% 30.20 in 10.0 mi North 6.9 mph - N/A   Clear
3:20 PM 69.8 °F - 35.6 °F 28% 30.19 in 10.0 mi NNW 6.9 mph - N/A   Clear
3:40 PM 68.0 °F - 41.0 °F 37% 30.18 in 10.0 mi WNW 8.1 mph - N/A   Clear
4:00 PM 68.0 °F - 42.8 °F 40% 30.18 in 10.0 mi WNW 9.2 mph - N/A   Clear
4:20 PM 68.0 °F - 44.6 °F 43% 30.18 in 10.0 mi WNW 9.2 mph - N/A   Clear
5:00 PM 68.0 °F - 44.6 °F 43% 30.18 in 10.0 mi West 11.5 mph - N/A   Clear
5:20 PM 66.2 °F - 44.6 °F 46% 30.17 in 10.0 mi WNW 9.2 mph - N/A   Clear
5:40 PM 66.2 °F - 42.8 °F 43% 30.17 in 10.0 mi WNW 11.5 mph - N/A   Clear
6:00 PM 66.2 °F - 42.8 °F 43% 30.17 in 10.0 mi NW 9.2 mph - N/A   Clear
6:20 PM 64.4 °F - 44.6 °F 49% 30.17 in 10.0 mi WNW 9.2 mph - N/A   Clear
6:40 PM 64.4 °F - 44.6 °F 49% 30.17 in 10.0 mi NW 8.1 mph - N/A   Clear
7:00 PM 62.6 °F - 44.6 °F 52% 30.17 in 10.0 mi NW 6.9 mph - N/A   Clear
7:20 PM 62.6 °F - 44.6 °F 52% 30.17 in 10.0 mi NNW 6.9 mph - N/A   Clear
7:40 PM 60.8 °F - 44.6 °F 55% 30.17 in 10.0 mi NNW 4.6 mph - N/A   Clear
8:00 PM 59.0 °F - 44.6 °F 59% 30.17 in 10.0 mi North 4.6 mph - N/A   Clear
8:20 PM 59.0 °F - 44.6 °F 59% 30.18 in 10.0 mi North 4.6 mph - N/A   Clear
8:40 PM 59.0 °F - 44.6 °F 59% 30.18 in 10.0 mi North 4.6 mph - N/A   Clear
9:00 PM 59.0 °F - 44.6 °F 59% 30.18 in 10.0 mi North 4.6 mph - N/A   Clear
9:20 PM 59.0 °F - 44.6 °F 59% 30.19 in 10.0 mi NNE 4.6 mph - N/A   Clear
9:40 PM 59.0 °F - 44.6 °F 59% 30.20 in 10.0 mi NE 3.5 mph - N/A   Clear
10:20 PM 59.0 °F - 33.8 °F 39% 30.20 in 10.0 mi ENE 6.9 mph - N/A   Clear
10:40 PM 62.6 °F - 28.4 °F 27% 30.20 in 10.0 mi ENE 9.2 mph - N/A   Clear
11:00 PM 62.6 °F - 26.6 °F 26% 30.20 in 10.0 mi East 8.1 mph - N/A   Clear
11:20 PM 62.6 °F - 24.8 °F 24% 30.20 in 10.0 mi East 9.2 mph - N/A   Clear
11:40 PM 62.6 °F - 23.0 °F 22% 30.20 in 10.0 mi East 9.2 mph - N/A   Clear